FW4373 Weather Reports


time (UTC)temp
C
wind
direction
speed
KPH
gust
KPH
rain 1hr
cm
rain 24hr
cm
rain mn
cm
humidity
%
barometer
mb
20260507224533 6 0 0.0 0.0 0.00 0.00 0.00 87 1017.1
20260507223027 7 0 0.0 0.0 0.00 0.00 0.00 85 1017.1
20260507221528 7 0 0.0 0.0 0.00 0.00 0.00 83 1017.1
20260507220025 7 0 0.0 0.0 0.00 0.00 0.00 83 1017.1
20260507214526 8 0 0.0 0.0 0.00 0.00 0.00 83 1016.8
20260507213036 8 0 0.0 0.0 0.00 0.00 0.00 83 1016.9
20260507211543 8 0 0.0 0.0 0.00 0.00 0.00 82 1017.1
20260507210028 8 0 0.0 0.0 0.00 0.00 0.00 82 1017.1
20260507204528 8 0 0.0 0.0 0.00 0.00 0.00 82 1017.0
20260507203028 8 0 0.0 0.0 0.00 0.00 0.00 83 1016.8
20260507201536 9 0 0.0 0.0 0.00 0.00 0.00 81 1016.7
20260507200034 10 0 0.0 0.0 0.00 0.00 0.00 80 1016.3
20260507194526 11 0 0.0 0.0 0.00 0.00 0.00 77 1016.2
20260507193028 11 0 0.0 0.0 0.00 0.00 0.00 74 1016.0
20260507191527 12 0 0.0 0.0 0.00 0.00 0.00 72 1015.9
20260507190028 12 0 0.0 1.6 0.00 0.00 0.00 71 1015.8
20260507184527 13 0 0.0 0.0 0.00 0.00 0.00 68 1015.8
20260507183032 13 0 0.0 1.6 0.00 0.00 0.00 69 1015.8
20260507181528 13 0 0.0 0.0 0.00 0.00 0.00 69 1015.7
20260507180039 13 0 0.0 1.6 0.00 0.00 0.00 68 1015.6
20260507174526 13 0 0.0 0.0 0.00 0.00 0.00 68 1015.6
20260507173030 13 0 0.0 0.0 0.00 0.00 0.00 68 1015.7
20260507171526 13 0 0.0 0.0 0.00 0.00 0.00 67 1015.5
20260507170042 13 0 0.0 1.6 0.00 0.00 0.00 67 1015.6
20260507164526 13 0 0.0 1.6 0.00 0.00 0.00 66 1015.7
20260507163027 13 0 0.0 6.4 0.00 0.00 0.00 65 1015.6
20260507161530 13 0 0.0 0.0 0.00 0.00 0.00 63 1015.6
20260507160029 14 0 0.0 0.0 0.00 0.00 0.00 60 1015.6
20260507154528 14 0 0.0 3.2 0.00 0.00 0.00 60 1015.6
20260507153027 15 0 0.0 0.0 0.00 0.00 0.00 57 1015.7
20260507151528 15 0 0.0 0.0 0.00 0.00 0.00 52 1015.7
20260507150028 15 0 0.0 0.0 0.00 0.00 0.00 53 1015.7
20260507144528 15 0 0.0 0.0 0.00 0.00 0.00 49 1015.7
20260507143025 15 0 0.0 9.7 0.00 0.00 0.00 46 1015.8
20260507141528 14 0 0.0 0.0 0.00 0.00 0.00 47 1015.9
20260507140035 15 0 0.0 4.8 0.00 0.00 0.00 48 1015.9
20260507134526 15 0 0.0 0.0 0.00 0.00 0.00 46 1016.0
20260507133028 15 0 0.0 1.6 0.00 0.00 0.00 50 1016.0
20260507131528 15 0 0.0 0.0 0.00 0.00 0.00 50 1016.2
20260507130031 14 0 0.0 6.4 0.00 0.00 0.00 47 1016.1
20260507124529 15 0 1.6 12.9 0.00 0.00 0.00 46 1016.2
20260507123028 14 0 0.0 0.0 0.00 0.00 0.00 49 1016.2
20260507121526 14 0 0.0 0.0 0.00 0.00 0.00 49 1016.1
20260507120028 14 0 0.0 0.0 0.00 0.00 0.00 50 1016.2
20260507114529 15 0 0.0 6.4 0.00 0.00 0.00 48 1016.2
20260507113028 15 82 0.0 8.0 0.00 0.00 0.00 49 1016.3
20260507111528 13 0 0.0 3.2 0.00 0.00 0.00 47 1016.3
20260507091537 12 0 0.0 1.6 0.00 0.00 0.00 70 1016.7
20260507083026 10 105 3.2 8.0 0.00 0.00 0.00 80 1016.9
20260507081528 10 0 0.0 4.8 0.00 0.00 0.00 82 1016.9
20260507080027 9 100 1.6 6.4 0.00 0.00 0.00 84 1017.0
20260507074529 8 0 0.0 8.0 0.00 0.00 0.00 87 1016.8
20260507073027 7 0 0.0 6.4 0.00 0.00 0.00 87 1016.8
20260507071529 6 69 0.0 3.2 0.00 0.00 0.00 86 1016.7
20260507070028 6 0 0.0 0.0 0.00 0.00 0.00 89 1016.6
20260507064525 5 0 0.0 1.6 0.00 0.00 0.00 91 1016.7
20260507063027 4 0 0.0 1.6 0.00 0.00 0.00 92 1016.7
20260507061529 3 0 0.0 0.0 0.00 0.00 0.00 93 1016.6
20260507060026 3 0 0.0 0.0 0.00 0.00 0.00 93 1016.5
20260507054525 3 0 0.0 0.0 0.00 0.00 0.00 93 1016.5
20260507053030 3 0 0.0 0.0 0.00 0.00 0.00 93 1016.3
20260507051526 3 0 0.0 0.0 0.00 0.00 0.00 93 1016.3
20260507050040 3 0 0.0 0.0 0.00 0.00 0.00 93 1016.3
20260507044526 2 0 0.0 0.0 0.00 0.00 0.00 92 1016.2
20260507043025 2 0 0.0 0.0 0.00 0.00 0.00 92 1016.1
20260507041528 2 0 0.0 0.0 0.00 0.00 0.00 92 1016.3
20260507040026 2 0 0.0 0.0 0.00 0.00 0.00 92 1016.2
20260507034529 3 0 0.0 0.0 0.00 0.00 0.00 92 1016.1
20260507033026 3 0 0.0 0.0 0.00 0.00 0.00 91 1016.2
20260507031529 3 0 0.0 0.0 0.00 0.00 0.00 91 1016.2
20260507030031 3 0 0.0 0.0 0.00 0.00 0.00 91 1016.2
20260507024533 3 0 0.0 0.0 0.00 0.00 0.00 91 1016.1
20260507023029 3 0 0.0 0.0 0.00 0.00 0.00 91 1016.1
20260507021533 3 0 0.0 0.0 0.00 0.00 0.00 91 1016.2
20260507020028 3 0 0.0 0.0 0.00 0.00 0.00 91 1016.1
20260507014531 3 0 0.0 0.0 0.00 0.00 0.00 90 1015.9
20260507013029 3 0 0.0 0.0 0.00 0.00 0.00 90 1015.9
20260507011526 4 0 0.0 0.0 0.00 0.00 0.00 89 1016.0
20260507010032 4 0 0.0 0.0 0.00 0.00 0.00 89 1016.0
20260507004527 4 0 0.0 0.0 0.00 0.00 0.00 88 1015.9
20260507003025 5 0 0.0 0.0 0.00 0.00 0.00 88 1015.9
20260507000032 5 0 0.0 0.0 0.00 0.00 0.00 86 1016.0
20260506234525 5 0 0.0 0.0 0.00 0.00 0.00 85 1016.0
20260506233026 5 0 0.0 0.0 0.00 0.00 0.00 84 1015.8
20260506231528 6 0 0.0 0.0 0.00 0.00 0.00 83 1015.7